Rome, NY

7:36 PM EDT on March 24, 2017 (GMT -0400)
Griffiss

Weather History for KRME - March, 2013

Change the Weather History Date:

Friday, March 8, 2013

  Actual Average Record
Temperature  
Mean Temperature 33 °F -  
Max Temperature 39 °F 35 °F 62 °F (2016)
Min Temperature 24 °F 18 °F -4 °F (1984)
Degree Days  
Heating Degree Days 32    
Moisture  
Dew Point 24 °F    
Average Humidity 78    
Maximum Humidity 96    
Minimum Humidity 49    
Precipitation  
Precipitation 0.05 in - - ()
Sea Level Pressure  
Sea Level Pressure 30.27 in    
Wind  
Wind Speed 9 mph (NW)    
Max Wind Speed 14 mph    
Max Gust Speed -    
Visibility 6 miles    
Events Snow    
Averages and records for this station are not official NWS values.
T = Trace of Precipitation, MM = Missing Value Source: NWS Daily Summary

Daily Weather History Graph

Daily Weather History Graph

Search for Another Location

Airport or City:

Trip Planner

Search our weather history database for the weather conditions in past years. The results will help you decide how hot, cold, wet, or windy it might be!

Date:

Astronomy

Mar. 08, 2013 Rise Set
Actual Time 6:25 AM EST 5:59 PM EST
Civil Twilight 5:57 AM EST 6:28 PM EST
Nautical Twilight 5:24 AM EST 7:01 PM EST
Astronomical Twilight 4:51 AM EST 7:34 PM EST
Moon 4:12 AM EST (3/8) 2:48 PM EST (3/8)
Length of Visible Light 12h 31m
Length of Day
11h 34m
Waning Crescent, 12% of the Moon is Illuminated
Mar 8
Waning Crescent
Mar 11
New
Mar 19
First Quarter
Mar 27
Full
Apr 3
Last Quarter

Hourly Weather History & Observations

Time (EST) Temp. Windchill Dew Point Humidity Pressure Visibility Wind Dir Wind Speed Gust Speed Precip Events Conditions
12:53 AM 28.0 °F 20.0 °F 25.0 °F 88% 30.20 in 1.5 mi West 8.1 mph - 0.01 in Snow Light Snow
1:53 AM 27.0 °F 18.7 °F 26.1 °F 96% 30.21 in 1.5 mi WNW 8.1 mph - 0.01 in Snow Light Snow
2:05 AM 27.0 °F 18.0 °F 26.1 °F 96% 30.19 in 1.2 mi West 9.2 mph - 0.00 in Snow Light Snow
2:38 AM 27.0 °F 18.0 °F 26.1 °F 96% 30.20 in 1.2 mi West 9.2 mph - 0.01 in Snow Light Snow
2:53 AM 27.0 °F 18.0 °F 26.1 °F 96% 30.21 in 1.2 mi West 9.2 mph - 0.01 in Snow Light Snow
3:12 AM 27.0 °F 19.5 °F 26.1 °F 96% 30.20 in 1.2 mi WNW 6.9 mph - 0.00 in Snow Light Snow
3:53 AM 27.0 °F 18.0 °F 26.1 °F 96% 30.22 in 1.2 mi West 9.2 mph - 0.01 in Snow Light Snow
4:36 AM 27.0 °F 18.0 °F 25.0 °F 92% 30.21 in 1.2 mi West 9.2 mph - 0.01 in Snow Light Snow
4:53 AM 27.0 °F 18.0 °F 25.0 °F 92% 30.22 in 1.2 mi WNW 9.2 mph - 0.01 in Snow Light Snow
5:15 AM 27.0 °F 17.3 °F 25.0 °F 92% 30.21 in 2.0 mi West 10.4 mph - 0.00 in Snow Light Snow
5:53 AM 27.0 °F 17.3 °F 25.0 °F 92% 30.24 in 2.5 mi West 10.4 mph - 0.00 in Snow Light Snow
6:11 AM 27.0 °F 19.5 °F 25.0 °F 92% 30.23 in 3.0 mi West 6.9 mph - 0.00 in Snow Light Snow
6:26 AM 27.0 °F 18.0 °F 25.0 °F 92% 30.23 in 2.5 mi WNW 9.2 mph - 0.00 in Snow Light Snow
6:36 AM 27.0 °F 18.0 °F 25.0 °F 92% 30.23 in 4.0 mi WNW 9.2 mph - 0.00 in Snow Light Snow
6:53 AM 27.0 °F 17.3 °F 25.0 °F 92% 30.25 in 3.0 mi West 10.4 mph - 0.00 in Snow Light Snow
7:00 AM 27.0 °F 18.0 °F 25.0 °F 92% 30.24 in 2.0 mi West 9.2 mph - 0.00 in Snow Light Snow
7:30 AM 28.0 °F 20.8 °F 25.0 °F 88% 30.25 in 5.0 mi West 6.9 mph - 0.00 in Snow Light Snow
7:53 AM 28.9 °F 19.8 °F 23.0 °F 78% 30.26 in 10.0 mi NW 10.4 mph - 0.00 in   Overcast
8:39 AM 30.0 °F 21.7 °F 21.9 °F 72% 30.26 in 10.0 mi NNW 9.2 mph - N/A   Overcast
8:53 AM 30.0 °F 24.1 °F 21.9 °F 72% 30.28 in 10.0 mi NNW 5.8 mph - N/A   Overcast
9:53 AM 30.0 °F 20.5 °F 21.9 °F 72% 30.29 in 10.0 mi NNW 11.5 mph - N/A   Overcast
10:53 AM 30.9 °F 20.7 °F 21.9 °F 69% 30.30 in 10.0 mi NNW 13.8 mph - N/A   Overcast
11:26 AM 32.0 °F 22.1 °F 21.9 °F 66% 30.28 in 10.0 mi North 13.8 mph - N/A   Overcast
11:53 AM 33.1 °F 23.9 °F 23.0 °F 66% 30.30 in 10.0 mi NNW 12.7 mph - N/A   Overcast
12:53 PM 35.1 °F 26.9 °F 23.0 °F 61% 30.27 in 10.0 mi North 11.5 mph - N/A   Mostly Cloudy
1:53 PM 37.9 °F 30.0 °F 23.0 °F 55% 30.26 in 10.0 mi NNW 12.7 mph - N/A   Clear
2:53 PM 39.9 °F 32.9 °F 24.1 °F 53% 30.27 in 10.0 mi NNW 11.5 mph - N/A   Clear
3:53 PM 39.9 °F 32.9 °F 21.9 °F 49% 30.27 in 10.0 mi North 11.5 mph - N/A   Clear
4:53 PM 39.0 °F 32.3 °F 21.0 °F 49% 30.30 in 10.0 mi North 10.4 mph - N/A   Clear
5:53 PM 37.0 °F 28.9 °F 21.0 °F 52% 30.32 in 10.0 mi NNW 12.7 mph - N/A   Mostly Cloudy
6:53 PM 34.0 °F 26.0 °F 23.0 °F 64% 30.34 in 10.0 mi WNW 10.4 mph - N/A   Clear
7:53 PM 34.0 °F 27.2 °F 21.0 °F 59% 30.35 in 10.0 mi WNW 8.1 mph - N/A   Clear
8:53 PM 32.0 °F 23.0 °F 21.0 °F 64% 30.36 in 10.0 mi West 11.5 mph - N/A   Clear
9:53 PM 28.9 °F 23.9 °F 21.0 °F 72% 30.38 in 10.0 mi NW 4.6 mph - N/A   Clear
10:53 PM 28.0 °F 24.2 °F 21.0 °F 75% 30.39 in 10.0 mi NW 3.5 mph - N/A   Clear
11:53 PM 24.1 °F - 19.9 °F 84% 30.38 in 10.0 mi Calm Calm - N/A   Clear